Location: Poughquag
(41.6090°N, 73.6820°W)
Time: 12:42:21
(UTC-04:00)

A-11 Canister half - Pass Details

Date: 04 June 2020
Orbit: 1527 x 1682 km, 47.3° (Epoch: 06 July)

Event Time Altitude Azimuth Distance (km) Brightness Sun altitude
Rises 09:05:23 0° 268° (W) 4,674 11.1 39.1°
Reaches altitude 10° 09:08:28 10° 271° (W) 3,695 10.6 39.7°
Maximum altitude 09:17:43 64° 353° (N) 1,684 9.8 41.4°
Drops below altitude 10° 09:27:10 10° 74° (ENE) 3,773 12.0 43.2°
Sets 09:30:21 0° 78° (ENE) 4,779 12.3 43.8°
